• In Italy
  • List of Countries
  • For 7 days
  • Water Temperature
  • Satellite Maps
  • Weather Map
  • Weather Widgets
  • user-avatar
    Login

    Hourly Weather Quito

    Today, 20 September, Wednesday

    Time Temperature Precipitation Wind Pressure Humidity
    00:00 +19°C° 0 mm 0 mps 623 mmHg 42%
    01:00 +18°C° 0 mm 0 mps 623 mmHg 46%
    02:00 +17°C° 0 mm 0 mps 623 mmHg 49%
    03:00 +17°C° 0 mm 0 mps 623 mmHg 51%
    04:00 +16°C° 0 mm 0 mps 622 mmHg 54%
    05:00 +17°C° 0 mm 0 mps 623 mmHg 51%
    06:00 +18°C° 0 mm 0 mps 624 mmHg 49%
    07:00 +19°C° 0 mm 0 mps 624 mmHg 46%
    08:00 +25°C° 0 mm 2 mps 625 mmHg 35%
    09:00 +28°C° 0 mm 3 mps 626 mmHg 25%
    10:00 +32°C° 0 mm 5 mps 626 mmHg 14%
    11:00 +33°C° 0 mm 5 mps 626 mmHg 13%
    12:00 +34°C° 0 mm 5 mps 626 mmHg 11%
    13:00 +35°C° 0 mm 4 mps 625 mmHg 10%
    14:00 +35°C° 0 mm 4 mps 625 mmHg 10%
    15:00 +35°C° 0 mm 4 mps 624 mmHg 10%
    16:00 +35°C° 0 mm 3 mps 624 mmHg 9%
    17:00 +31°C° 0 mm 3 mps 623 mmHg 11%
    18:00 +28°C° 0 mm 2 mps 623 mmHg 13%
    19:00 +24°C° 0 mm 1 mps 622 mmHg 15%
    20:00 +24°C° 0 mm 1 mps 623 mmHg 16%
    21:00 +23°C° 0 mm 1 mps 623 mmHg 17%
    22:00 +22°C° 0 mm 1 mps 623 mmHg 17%
    23:00 +21°C° 0 mm 1 mps 623 mmHg 19%

    Tomorrow, 21 September, Thursday

    Time Temperature Precipitation Wind Pressure Humidity
    00:00 +21°C° 0 mm 1 mps 623 mmHg 21%
    01:00 +20°C° 0 mm 1 mps 623 mmHg 23%
    02:00 +20°C° 0 mm 1 mps 622 mmHg 28%
    03:00 +19°C° 0 mm 1 mps 622 mmHg 32%
    04:00 +16°C° 0 mm 0 mps 622 mmHg 37%
    05:00 +20°C° 0 mm 1 mps 622 mmHg 37%
    06:00 +21°C° 0 mm 1 mps 623 mmHg 37%
    07:00 +22°C° 0 mm 1 mps 624 mmHg 37%
    08:00 +25°C° 0 mm 1 mps 625 mmHg 31%
    09:00 +29°C° 0 mm 2 mps 626 mmHg 25%
    10:00 +32°C° 0 mm 2 mps 627 mmHg 19%
    11:00 +34°C° 0 mm 3 mps 626 mmHg 17%
    12:00 +35°C° 0 mm 3 mps 626 mmHg 15%
    13:00 +35°C° 0 mm 3 mps 625 mmHg 12%
    14:00 +35°C° 0 mm 3 mps 624 mmHg 12%
    15:00 +35°C° 0 mm 2 mps 624 mmHg 12%
    16:00 +35°C° 0 mm 2 mps 624 mmHg 11%
    17:00 +31°C° 0 mm 2 mps 623 mmHg 15%
    18:00 +29°C° 0 mm 2 mps 623 mmHg 18%
    19:00 +26°C° 0 mm 1 mps 622 mmHg 21%
    20:00 +25°C° 0 mm 1 mps 622 mmHg 26%
    21:00 +24°C° 0 mm 2 mps 623 mmHg 31%
    22:00 +23°C° 0 mm 2 mps 623 mmHg 35%
    23:00 +23°C° 0 mm 2 mps 623 mmHg 40%

    Day after tomorrow, 22 September, Friday

    Time Temperature Precipitation Wind Pressure Humidity
    00:00 +23°C° 0 mm 2 mps 622 mmHg 45%
    01:00 +21°C° 0 mm 2 mps 622 mmHg 50%
    02:00 +21°C° 0 mm 2 mps 622 mmHg 51%
    03:00 +21°C° 0 mm 2 mps 622 mmHg 52%
    04:00 +21°C° 0 mm 1 mps 622 mmHg 53%
    05:00 +21°C° 0 mm 2 mps 622 mmHg 52%
    06:00 +23°C° 0 mm 2 mps 623 mmHg 50%
    07:00 +23°C° 0 mm 2 mps 624 mmHg 48%
    08:00 +27°C° 0 mm 2 mps 625 mmHg 39%
    09:00 +31°C° 0 mm 1 mps 626 mmHg 30%
    10:00 +33°C° 0 mm 0 mps 628 mmHg 21%
    11:00 +35°C° 0 mm 1 mps 627 mmHg 20%
    12:00 +35°C° 0 mm 2 mps 625 mmHg 19%
    13:00 +35°C° 0 mm 3 mps 624 mmHg 19%
    14:00 +34°C° 0 mm 3 mps 624 mmHg 20%
    15:00 +32°C° 0 mm 2 mps 623 mmHg 21%
    16:00 +32°C° 0 mm 2 mps 623 mmHg 22%
    17:00 +30°C° 0 mm 2 mps 623 mmHg 26%
    18:00 +28°C° 0 mm 2 mps 623 mmHg 30%
    19:00 +25°C° 0 mm 1 mps 622 mmHg 33%
    20:00 +24°C° 0 mm 1 mps 623 mmHg 36%
    21:00 +23°C° 0 mm 1 mps 623 mmHg 39%
    22:00 +22°C° 0 mm 1 mps 623 mmHg 42%
    23:00 +22°C° 0 mm 1 mps 622 mmHg 43%

    23 September, Saturday

    Time Temperature Precipitation Wind Pressure Humidity
    00:00 +21°C° 0 mm 1 mps 622 mmHg 45%
    01:00 +21°C° 0 mm 1 mps 621 mmHg 46%
    02:00 +20°C° 0 mm 1 mps 621 mmHg 50%
    03:00 +20°C° 0 mm 1 mps 621 mmHg 54%
    04:00 +19°C° 0 mm 1 mps 621 mmHg 58%
    05:00 +20°C° 0 mm 1 mps 622 mmHg 56%
    06:00 +21°C° 0 mm 1 mps 622 mmHg 54%
    07:00 +21°C° 0 mm 2 mps 623 mmHg 52%
    08:00 +25°C° 0 mm 3 mps 624 mmHg 41%
    09:00 +29°C° 0 mm 4 mps 625 mmHg 30%
    10:00 +33°C° 0 mm 5 mps 626 mmHg 19%
    11:00 +34°C° 0 mm 4 mps 625 mmHg 17%
    12:00 +35°C° 0 mm 4 mps 625 mmHg 15%
    13:00 +36°C° 0 mm 4 mps 624 mmHg 13%
    14:00 +36°C° 0 mm 4 mps 624 mmHg 13%
    15:00 +36°C° 0 mm 3 mps 623 mmHg 12%
    16:00 +36°C° 0 mm 3 mps 623 mmHg 12%
    17:00 +34°C° 0 mm 2 mps 623 mmHg 14%
    18:00 +30°C° 0 mm 2 mps 623 mmHg 16%
    19:00 +28°C° 0 mm 1 mps 623 mmHg 18%
    20:00 +27°C° 0 mm 1 mps 623 mmHg 22%
    21:00 +27°C° 0 mm 2 mps 623 mmHg 25%
    22:00 +26°C° 0 mm 2 mps 624 mmHg 28%
    23:00 +24°C° 0 mm 2 mps 623 mmHg 37%

    24 September, Sunday

    Time Temperature Precipitation Wind Pressure Humidity
    00:00 +23°C° 0 mm 2 mps 622 mmHg 47%
    01:00 +21°C° 0 mm 2 mps 622 mmHg 56%
    02:00 +20°C° 0 mm 2 mps 622 mmHg 59%
    03:00 +21°C° 0 mm 1 mps 622 mmHg 62%
    04:00 +20°C° 0 mm 1 mps 622 mmHg 65%
    05:00 +21°C° 0 mm 1 mps 622 mmHg 61%
    06:00 +22°C° 0 mm 1 mps 623 mmHg 57%
    07:00 +23°C° 0 mm 1 mps 624 mmHg 53%
    08:00 +26°C° 0 mm 1 mps 625 mmHg 43%
    09:00 +30°C° 0 mm 2 mps 626 mmHg 33%
    10:00 +34°C° 0 mm 2 mps 627 mmHg 23%
    11:00 +34°C° 0 mm 2 mps 626 mmHg 22%
    12:00 +34°C° 0 mm 3 mps 625 mmHg 20%
    13:00 +35°C° 0 mm 3 mps 624 mmHg 19%
    14:00 +34°C° 0 mm 3 mps 623 mmHg 19%
    15:00 +34°C° 0 mm 3 mps 623 mmHg 19%
    16:00 +34°C° 0 mm 3 mps 623 mmHg 19%
    17:00 +31°C° 0 mm 2 mps 623 mmHg 23%
    18:00 +28°C° 0 mm 2 mps 622 mmHg 27%
    19:00 +26°C° 0 mm 2 mps 622 mmHg 31%
    20:00 +25°C° 0 mm 2 mps 622 mmHg 36%
    21:00 +24°C° 0 mm 2 mps 622 mmHg 41%
    22:00 +23°C° 0 mm 2 mps 622 mmHg 46%
    23:00 +21°C° 0 mm 2 mps 622 mmHg 50%

    25 September, Monday

    Time Temperature Precipitation Wind Pressure Humidity
    00:00 +20°C° 0 mm 2 mps 622 mmHg 55%
    01:00 +19°C° 0 mm 2 mps 621 mmHg 59%
    02:00 +18°C° 0 mm 2 mps 621 mmHg 62%
    03:00 +18°C° 0 mm 2 mps 621 mmHg 64%
    04:00 +18°C° 0 mm 1 mps 621 mmHg 67%
    05:00 +20°C° 0 mm 1 mps 622 mmHg 63%
    06:00 +21°C° 0 mm 1 mps 622 mmHg 58%
    07:00 +22°C° 0 mm 1 mps 623 mmHg 54%
    08:00 +26°C° 0 mm 1 mps 624 mmHg 44%
    09:00 +29°C° 0 mm 1 mps 625 mmHg 35%
    10:00 +34°C° 0 mm 2 mps 626 mmHg 25%
    11:00 +35°C° 0 mm 2 mps 625 mmHg 22%
    12:00 +36°C° 0 mm 2 mps 624 mmHg 18%
    13:00 +37°C° 0 mm 2 mps 624 mmHg 14%
    14:00 +36°C° 0 mm 2 mps 623 mmHg 15%
    15:00 +35°C° 0 mm 2 mps 623 mmHg 15%
    16:00 +34°C° 0 mm 2 mps 622 mmHg 15%
    17:00 +31°C° 0 mm 2 mps 622 mmHg 19%
    18:00 +29°C° 0 mm 2 mps 621 mmHg 23%
    19:00 +26°C° 0 mm 2 mps 621 mmHg 27%
    20:00 +25°C° 0 mm 2 mps 621 mmHg 30%
    21:00 +24°C° 0 mm 2 mps 621 mmHg 33%
    22:00 +23°C° 0 mm 2 mps 621 mmHg 37%
    23:00 +22°C° 0 mm 3 mps 621 mmHg 43%
    Show more